Voltar ao catálogo

STARLINK-30922

AtivoComunicaçõesVLEO
NORAD 58414·PAYLOAD·🇺🇸 United States

Lançado Nov 22, 2023 de Cape Canaveral Space Force Station

Loading…

Próximas Passagens (próximas 24 horas)

TLE

AtualizadoSource: CelesTrak SupGP

Época: Sep 14, 2026, 22:35 UTC

1 58414C 23180N   26257.94145833  .00063213  00000+0  22898-2 0  2577
2 58414  43.0042  63.9399 0001513 275.8114 217.0601 15.27543220    13

Acompanhe STARLINK-30922 em tempo real com AllMySat

Download on the App Store